Flag for Germany Weather past 2 weeks in Waltrop, North Rhine-Westphalia, Germany

Now
72 °F

Sunny.


Feels Like: 76 °F
Forecast: 61 / 84 °F
Wind: 7 mph from South

Location: Dortmund / Wickede

Current Time: Aug 1, 2014 at 10:32:07 AM

Latest Report: Aug 1, 2014 at 9:50 AM


Visibility: 10 mi

Pressure: 29.89 "Hg

Humidity: 57%

Dew point: 55 °F

Location of WaltropLocation

Historic Weather in Waltrop — Graph

°F

Waltrop temperature yesterday

Maximum temperature yesterday: 79 °F (at 6:20 PM)
Minimum temperature yesterday: 54 °F (at 5:50 AM)
Average temperature yesterday: 69 °F

Past Weeks' High & Low Weather Summary

 TemperatureHumidityPressure
High90 °F (Jul 19, 1:20 PM)100% (Jul 21, 12:50 PM)30.18 "Hg (Jul 21, 12:50 PM)
Low54 °F (Jul 31, 5:50 AM)22% (Jul 19, 2:50 PM)29.77 "Hg (Jul 20, 5:20 AM)
Average72 °F65%29.95 "Hg
* Reported Jul 17 9:20 AM — Aug 1 9:20 AM, Waltrop, Weather by CustomWeather, © 2014

Note: Actual official high and low records may vary slightly from our data, if they occured in-between our weather recording intervals... More about our weather records

Advertising

Waltrop weather history for previous 24 hours

 ConditionsComfort  
Time TempWeatherWind HumidityBarometerVisibility
9:20 AM
Aug 1
68 °FPassing clouds.8 mph64%29.89 "HgN/A
8:50 AM66 °FSunny.8 mph64%29.89 "Hg10 mi
8:20 AM66 °FSunny.6 mph64%29.89 "Hg10 mi
7:50 AM64 °FSunny.9 mph68%29.89 "Hg10 mi
7:20 AM63 °FSunny.8 mph73%29.89 "Hg10 mi
6:50 AM63 °FClear.7 mph73%29.89 "Hg10 mi
6:20 AM61 °FClear.9 mph77%29.89 "Hg10 mi
5:50 AM61 °FClear.7 mph77%29.89 "Hg10 mi
5:20 AM61 °FClear.7 mph77%29.89 "Hg10 mi
10:50 PM
Jul 31
66 °FPassing clouds.6 mph64%29.95 "HgN/A
10:20 PM68 °FClear.6 mph60%29.95 "Hg10 mi
9:50 PM68 °FSunny.3 mph60%29.95 "Hg10 mi
9:20 PM70 °FSunny.3 mph57%29.95 "Hg10 mi
8:50 PM70 °FSunny.3 mph57%29.95 "Hg10 mi
8:20 PM73 °FSunny.3 mph53%29.95 "Hg10 mi
7:50 PM73 °FSunny.3 mph50%29.95 "Hg10 mi
7:20 PM77 °FSunny.3 mph42%29.95 "Hg10 mi
6:50 PM77 °FPassing clouds.5 mph44%29.95 "HgN/A
6:20 PM79 °FSunny.3 mph32%29.95 "Hg10 mi
5:50 PM77 °FSunny.3 mph36%29.95 "Hg10 mi
5:20 PM75 °FSunny.2 mph41%29.95 "Hg10 mi
4:50 PM75 °FSunny.3 mph44%29.98 "Hg10 mi
4:20 PM77 °FPassing clouds.5 mph44%29.98 "HgN/A
3:50 PM75 °FPassing clouds.5 mph44%29.98 "HgN/A
3:20 PM75 °FPassing clouds.3 mph44%29.98 "HgN/A
2:50 PM75 °FSunny.7 mph47%29.98 "Hg10 mi
2:20 PM73 °FSunny.5 mph53%29.98 "Hg10 mi
1:50 PM73 °FSunny.5 mph47%30.01 "Hg10 mi
1:20 PM72 °FSunny.5 mph53%30.01 "Hg10 mi
12:50 PM72 °FSunny.2 mph53%30.01 "Hg10 mi
12:20 PM70 °FPassing clouds.6 mph57%30.01 "HgN/A
11:50 AM68 °FPassing clouds.7 mph60%30.01 "HgN/A
11:20 AM66 °FPassing clouds.3 mph60%30.01 "HgN/A
10:50 AM66 °FPassing clouds.3 mph64%30.01 "HgN/A
10:20 AM64 °FPassing clouds.5 mph68%30.04 "HgN/A
Weather by CustomWeather, © 2014

See weather overviewHow to use our weather pages